Time,TemperatureF,DewpointF,PressureIn,WindDirection,WindDirectionDegrees,WindSpeedMPH,WindSpeedGustMPH,Humidity,HourlyPrecipIn,Conditions,Clouds,dailyrainin,SolarRadiationWatts/m^2,SoftwareType,DateUTC
2013-01-23 00:00:00,12.8,1.9,30.28,NNW,342,0.0,1.0,61,0.00,,,0.00,0.00,VWS V14.01,2013-01-23 05:00:00,
2013-01-23 00:01:00,12.8,1.9,30.28,NNW,342,0.0,0.0,61,0.00,,,0.00,0.00,VWS V14.01,2013-01-23 05:01:00,
2013-01-23 00:03:00,12.8,1.9,30.28,NNW,341,0.0,3.0,61,0.00,,,0.00,0.00,VWS V14.01,2013-01-23 05:03:00,
2013-01-23 00:04:00,12.8,1.9,30.28,NNW,342,0.0,3.0,61,0.00,,,0.00,0.00,VWS V14.01,2013-01-23 05:04:00,
2013-01-23 00:09:00,12.8,1.9,30.28,NNW,342,0.0,1.0,61,0.00,,,0.00,0.00,VWS V14.01,2013-01-23 05:09:00,
2013-01-23 00:14:00,12.8,1.9,30.28,NNW,330,0.0,2.0,61,0.00,,,0.00,0.00,VWS V14.01,2013-01-23 05:14:00,
2013-01-23 00:19:00,12.8,1.9,30.28,NNW,331,0.0,0.0,61,0.00,,,0.00,0.00,VWS V14.01,2013-01-23 05:19:00,
2013-01-23 00:24:00,12.7,2.2,30.28,NNW,337,0.0,3.0,62,0.00,,,0.00,0.00,VWS V14.01,2013-01-23 05:24:00,
2013-01-23 00:29:00,12.7,2.2,30.27,NW,318,4.0,5.0,62,0.00,,,0.00,0.00,VWS V14.01,2013-01-23 05:29:00,
2013-01-23 00:34:00,12.7,1.8,30.27,NW,317,0.0,6.0,61,0.00,,,0.00,0.00,VWS V14.01,2013-01-23 05:34:00,
2013-01-23 00:39:00,12.9,2.0,30.27,NW,320,3.0,7.0,61,0.00,,,0.00,0.00,VWS V14.01,2013-01-23 05:39:00,
2013-01-23 00:44:00,13.0,2.1,30.27,NNW,339,0.0,5.0,61,0.00,,,0.00,0.00,VWS V14.01,2013-01-23 05:44:00,
2013-01-23 00:50:00,13.0,2.1,30.27,NW,315,2.0,6.0,61,0.00,,,0.00,0.00,VWS V14.01,2013-01-23 05:50:00,
2013-01-23 00:55:00,13.0,1.7,30.27,NW,311,1.0,8.0,60,0.00,,,0.00,0.00,VWS V14.01,2013-01-23 05:55:00,
2013-01-23 01:00:00,13.1,1.8,30.27,NW,311,5.0,5.0,60,0.00,,,0.00,0.00,VWS V14.01,2013-01-23 06:00:00,
2013-01-23 01:05:00,13.1,1.8,30.27,NW,313,2.0,6.0,60,0.00,,,0.00,0.00,VWS V14.01,2013-01-23 06:05:00,
2013-01-23 01:10:00,13.0,2.1,30.27,NW,326,1.0,7.0,61,0.00,,,0.00,0.00,VWS V14.01,2013-01-23 06:10:00,
2013-01-23 01:15:00,13.0,2.1,30.27,NW,313,3.0,4.0,61,0.00,,,0.00,0.00,VWS V14.01,2013-01-23 06:15:00,
2013-01-23 01:20:00,12.9,2.0,30.27,NW,317,0.0,6.0,61,0.00,,,0.00,0.00,VWS V14.01,2013-01-23 06:20:00,
2013-01-23 01:25:00,12.9,2.0,30.27,NW,307,2.0,2.0,61,0.00,,,0.00,0.00,VWS V14.01,2013-01-23 06:25:00,
2013-01-23 01:30:00,12.9,2.0,30.28,NW,314,5.0,5.0,61,0.00,,,0.00,0.00,VWS V14.01,2013-01-23 06:30:00,
2013-01-23 01:36:00,12.9,2.0,30.28,NW,308,4.0,5.0,61,0.00,,,0.00,0.00,VWS V14.01,2013-01-23 06:36:00,
2013-01-23 01:41:00,13.0,2.1,30.28,NW,319,3.0,5.0,61,0.00,,,0.00,0.00,VWS V14.01,2013-01-23 06:41:00,
2013-01-23 01:46:00,13.0,2.1,30.28,NW,304,2.0,4.0,61,0.00,,,0.00,0.00,VWS V14.01,2013-01-23 06:46:00,
2013-01-23 01:51:00,13.0,2.1,30.28,NW,325,3.0,4.0,61,0.00,,,0.00,0.00,VWS V14.01,2013-01-23 06:51:00,
2013-01-23 01:56:00,13.0,2.1,30.28,NW,319,5.0,5.0,61,0.00,,,0.00,0.00,VWS V14.01,2013-01-23 06:56:00,
2013-01-23 02:01:00,12.9,2.0,30.28,NW,323,3.0,4.0,61,0.00,,,0.00,0.00,VWS V14.01,2013-01-23 07:01:00,
2013-01-23 02:06:00,12.8,1.9,30.28,NNW,336,2.0,3.0,61,0.00,,,0.00,0.00,VWS V14.01,2013-01-23 07:06:00,
2013-01-23 02:12:00,12.8,1.9,30.28,NW,321,2.0,8.0,61,0.00,,,0.00,0.00,VWS V14.01,2013-01-23 07:12:00,
2013-01-23 02:17:00,12.7,2.2,30.29,NW,319,2.0,3.0,62,0.00,,,0.00,0.00,VWS V14.01,2013-01-23 07:17:00,
2013-01-23 02:22:00,12.7,2.2,30.29,NW,325,0.0,4.0,62,0.00,,,0.00,0.00,VWS V14.01,2013-01-23 07:22:00,
2013-01-23 02:27:00,12.6,2.1,30.29,NNW,327,0.0,4.0,62,0.00,,,0.00,0.00,VWS V14.01,2013-01-23 07:27:00,
2013-01-23 02:32:00,12.5,2.0,30.29,NW,317,2.0,3.0,62,0.00,,,0.00,0.00,VWS V14.01,2013-01-23 07:32:00,
2013-01-23 02:38:00,12.5,2.3,30.29,NW,320,1.0,4.0,63,0.00,,,0.00,0.00,VWS V14.01,2013-01-23 07:38:00,
2013-01-23 02:43:00,12.5,2.3,30.29,NW,318,2.0,4.0,63,0.00,,,0.00,0.00,VWS V14.01,2013-01-23 07:43:00,
2013-01-23 02:48:00,12.4,2.2,30.29,NW,313,0.0,4.0,63,0.00,,,0.00,0.00,VWS V14.01,2013-01-23 07:48:00,
2013-01-23 02:53:00,12.3,2.1,30.29,NW,313,1.0,2.0,63,0.00,,,0.00,0.00,VWS V14.01,2013-01-23 07:53:00,
2013-01-23 02:58:00,12.3,2.1,30.29,NW,313,0.0,1.0,63,0.00,,,0.00,0.00,VWS V14.01,2013-01-23 07:58:00,
2013-01-23 03:03:00,12.2,2.4,30.29,NW,313,0.0,0.0,64,0.00,,,0.00,0.00,VWS V14.01,2013-01-23 08:03:00,
2013-01-23 03:08:00,12.2,2.4,30.29,NW,313,0.0,1.0,64,0.00,,,0.00,0.00,VWS V14.01,2013-01-23 08:08:00,
2013-01-23 03:13:00,12.0,2.5,30.29,NW,313,0.0,2.0,65,0.00,,,0.00,0.00,VWS V14.01,2013-01-23 08:13:00,
2013-01-23 03:18:00,11.9,2.4,30.29,NW,320,1.0,3.0,65,0.00,,,0.00,0.00,VWS V14.01,2013-01-23 08:18:00,
2013-01-23 03:24:00,11.9,2.4,30.29,NW,320,0.0,0.0,65,0.00,,,0.00,0.00,VWS V14.01,2013-01-23 08:24:00,
2013-01-23 03:29:00,11.8,2.3,30.29,NW,319,0.0,1.0,65,0.00,,,0.00,0.00,VWS V14.01,2013-01-23 08:29:00,
2013-01-23 03:34:00,11.8,2.3,30.29,NW,319,0.0,0.0,65,0.00,,,0.00,0.00,VWS V14.01,2013-01-23 08:34:00,
2013-01-23 03:39:00,11.7,2.2,30.29,NW,320,0.0,0.0,65,0.00,,,0.00,0.00,VWS V14.01,2013-01-23 08:39:00,
2013-01-23 03:44:00,11.7,2.2,30.29,NW,320,0.0,1.0,65,0.00,,,0.00,0.00,VWS V14.01,2013-01-23 08:44:00,
2013-01-23 03:49:00,11.6,2.1,30.29,NW,320,0.0,1.0,65,0.00,,,0.00,0.00,VWS V14.01,2013-01-23 08:49:00,
2013-01-23 03:54:00,11.6,2.5,30.29,NW,320,0.0,2.0,66,0.00,,,0.00,0.00,VWS V14.01,2013-01-23 08:54:00,
2013-01-23 03:59:00,11.6,2.5,30.29,NW,319,0.0,1.0,66,0.00,,,0.00,0.00,VWS V14.01,2013-01-23 08:59:00,
2013-01-23 04:04:00,11.6,2.5,30.29,NW,323,0.0,7.0,66,0.00,,,0.00,0.00,VWS V14.01,2013-01-23 09:04:00,
2013-01-23 04:09:00,11.7,2.5,30.29,NNW,341,0.0,4.0,66,0.00,,,0.00,0.00,VWS V14.01,2013-01-23 09:09:00,
2013-01-23 04:14:00,11.8,2.3,30.29,NNW,340,0.0,3.0,65,0.00,,,0.00,0.00,VWS V14.01,2013-01-23 09:14:00,
2013-01-23 04:19:00,11.9,2.4,30.29,NNW,333,0.0,2.0,65,0.00,,,0.00,0.00,VWS V14.01,2013-01-23 09:19:00,
2013-01-23 04:24:00,11.9,2.4,30.29,NNW,333,0.0,2.0,65,0.00,,,0.00,0.00,VWS V14.01,2013-01-23 09:24:00,
2013-01-23 04:29:00,11.9,2.4,30.29,NNW,333,0.0,1.0,65,0.00,,,0.00,0.00,VWS V14.01,2013-01-23 09:29:00,
2013-01-23 04:34:00,11.9,2.1,30.29,NNW,331,0.0,3.0,64,0.00,,,0.00,0.00,VWS V14.01,2013-01-23 09:34:00,
2013-01-23 04:40:00,11.9,2.1,30.29,NNW,331,0.0,3.0,64,0.00,,,0.00,0.00,VWS V14.01,2013-01-23 09:40:00,
2013-01-23 04:45:00,11.9,2.1,30.29,NW,309,2.0,4.0,64,0.00,,,0.00,0.00,VWS V14.01,2013-01-23 09:45:00,
2013-01-23 04:50:00,11.8,2.0,30.29,NW,314,3.0,4.0,64,0.00,,,0.00,0.00,VWS V14.01,2013-01-23 09:50:00,
2013-01-23 04:55:00,11.8,2.0,30.29,NW,315,3.0,3.0,64,0.00,,,0.00,0.00,VWS V14.01,2013-01-23 09:55:00,
2013-01-23 05:00:00,11.8,2.0,30.29,NW,315,0.0,0.0,64,0.00,,,0.00,0.00,VWS V14.01,2013-01-23 10:00:00,
2013-01-23 05:05:00,11.7,1.9,30.29,NW,316,0.0,0.0,64,0.00,,,0.00,0.00,VWS V14.01,2013-01-23 10:05:00,
2013-01-23 05:10:00,11.7,1.9,30.29,NW,315,0.0,0.0,64,0.00,,,0.00,0.00,VWS V14.01,2013-01-23 10:10:00,
2013-01-23 05:15:00,11.6,1.8,30.29,NW,315,0.0,0.0,64,0.00,,,0.00,0.00,VWS V14.01,2013-01-23 10:15:00,
2013-01-23 05:21:00,11.5,1.7,30.29,NW,316,0.0,0.0,64,0.00,,,0.00,0.00,VWS V14.01,2013-01-23 10:21:00,
2013-01-23 05:26:00,11.4,1.6,30.29,NW,315,0.0,0.0,64,0.00,,,0.00,0.00,VWS V14.01,2013-01-23 10:26:00,
2013-01-23 05:31:00,11.3,1.8,30.30,NW,315,0.0,0.0,65,0.00,,,0.00,0.00,VWS V14.01,2013-01-23 10:31:00,
2013-01-23 05:36:00,11.2,1.7,30.30,NW,315,0.0,0.0,65,0.00,,,0.00,0.00,VWS V14.01,2013-01-23 10:36:00,
2013-01-23 05:41:00,11.1,1.6,30.30,NW,316,2.0,3.0,65,0.00,,,0.00,0.00,VWS V14.01,2013-01-23 10:41:00,
2013-01-23 05:46:00,11.0,1.5,30.29,NW,316,0.0,0.0,65,0.00,,,0.00,0.00,VWS V14.01,2013-01-23 10:46:00,
2013-01-23 05:51:00,11.0,1.5,30.29,NW,315,0.0,1.0,65,0.00,,,0.00,0.00,VWS V14.01,2013-01-23 10:51:00,
2013-01-23 05:56:00,11.0,1.5,30.29,NW,316,0.0,0.0,65,0.00,,,0.00,0.00,VWS V14.01,2013-01-23 10:56:00,
2013-01-23 06:02:00,11.0,1.2,30.29,NW,316,0.0,0.0,64,0.00,,,0.00,0.00,VWS V14.01,2013-01-23 11:02:00,
2013-01-23 06:07:00,11.1,1.3,30.30,NW,316,0.0,0.0,64,0.00,,,0.00,0.00,VWS V14.01,2013-01-23 11:07:00,
2013-01-23 06:12:00,11.1,1.3,30.30,NW,316,0.0,0.0,64,0.00,,,0.00,0.00,VWS V14.01,2013-01-23 11:12:00,
2013-01-23 06:17:00,11.1,1.3,30.30,NW,316,0.0,0.0,64,0.00,,,0.00,0.00,VWS V14.01,2013-01-23 11:17:00,
2013-01-23 06:22:00,11.1,1.3,30.30,NW,316,0.0,0.0,64,0.00,,,0.00,0.00,VWS V14.01,2013-01-23 11:22:00,
2013-01-23 06:27:00,11.0,1.2,30.30,NW,316,0.0,0.0,64,0.00,,,0.00,0.00,VWS V14.01,2013-01-23 11:27:00,
2013-01-23 06:32:00,11.0,1.2,30.30,NW,315,0.0,0.0,64,0.00,,,0.00,0.00,VWS V14.01,2013-01-23 11:32:00,
2013-01-23 06:38:00,10.9,0.8,30.30,WNW,297,0.0,4.0,63,0.00,,,0.00,0.00,VWS V14.01,2013-01-23 11:38:00,
2013-01-23 06:43:00,10.9,0.8,30.30,WNW,297,0.0,1.0,63,0.00,,,0.00,0.00,VWS V14.01,2013-01-23 11:43:00,
2013-01-23 06:48:00,10.8,0.7,30.30,WNW,298,0.0,0.0,63,0.00,,,0.00,0.00,VWS V14.01,2013-01-23 11:48:00,
2013-01-23 06:53:00,10.8,0.7,30.31,WNW,298,0.0,0.0,63,0.00,,,0.00,0.00,VWS V14.01,2013-01-23 11:53:00,
2013-01-23 06:58:00,10.8,0.7,30.31,WNW,298,0.0,0.0,63,0.00,,,0.00,0.00,VWS V14.01,2013-01-23 11:58:00,
2013-01-23 07:03:00,10.7,0.6,30.31,NW,313,2.0,3.0,63,0.00,,,0.00,0.00,VWS V14.01,2013-01-23 12:03:00,
2013-01-23 07:08:00,10.8,0.7,30.31,WNW,298,1.0,4.0,63,0.00,,,0.00,0.00,VWS V14.01,2013-01-23 12:08:00,
2013-01-23 07:13:00,10.9,0.8,30.31,NW,307,0.0,4.0,63,0.00,,,0.00,0.00,VWS V14.01,2013-01-23 12:13:00,
2013-01-23 07:18:00,11.0,0.9,30.31,NW,307,0.0,2.0,63,0.00,,,0.00,0.00,VWS V14.01,2013-01-23 12:18:00,
2013-01-23 07:23:00,11.1,0.6,30.32,NW,307,1.0,2.0,62,0.00,,,0.00,0.00,VWS V14.01,2013-01-23 12:23:00,
2013-01-23 07:28:00,11.2,0.7,30.32,NW,311,0.0,5.0,62,0.00,,,0.00,5.00,VWS V14.01,2013-01-23 12:28:00,
2013-01-23 07:33:00,11.3,0.5,30.32,NW,317,0.0,4.0,61,0.00,,,0.00,7.00,VWS V14.01,2013-01-23 12:33:00,
2013-01-23 07:38:00,11.3,0.8,30.32,NW,317,0.0,2.0,62,0.00,,,0.00,11.00,VWS V14.01,2013-01-23 12:38:00,
2013-01-23 07:43:00,11.3,0.5,30.32,NW,317,1.0,3.0,61,0.00,,,0.00,12.00,VWS V14.01,2013-01-23 12:43:00,
2013-01-23 07:48:00,11.3,0.8,30.32,NW,317,0.0,1.0,62,0.00,,,0.00,14.00,VWS V14.01,2013-01-23 12:48:00,
2013-01-23 07:54:00,11.3,0.8,30.32,NW,313,3.0,4.0,62,0.00,,,0.00,18.00,VWS V14.01,2013-01-23 12:54:00,
2013-01-23 07:59:00,11.4,0.9,30.32,NW,310,0.0,2.0,62,0.00,,,0.00,21.00,VWS V14.01,2013-01-23 12:59:00,
2013-01-23 08:04:00,11.5,1.0,30.32,NW,319,2.0,5.0,62,0.00,,,0.00,23.00,VWS V14.01,2013-01-23 13:04:00,
2013-01-23 08:09:00,11.7,1.2,30.32,NW,322,2.0,4.0,62,0.00,,,0.00,25.00,VWS V14.01,2013-01-23 13:09:00,
2013-01-23 08:14:00,12.0,1.1,30.32,NW,323,0.0,7.0,61,0.00,,,0.00,26.00,VWS V14.01,2013-01-23 13:14:00,
2013-01-23 08:19:00,12.4,1.5,30.32,WNW,297,1.0,6.0,61,0.00,,,0.00,35.00,VWS V14.01,2013-01-23 13:19:00,
2013-01-23 08:24:00,12.7,1.8,30.32,NW,311,0.0,3.0,61,0.00,,,0.00,44.00,VWS V14.01,2013-01-23 13:24:00,
2013-01-23 08:29:00,13.0,1.7,30.32,NW,325,1.0,7.0,60,0.00,,,0.00,56.00,VWS V14.01,2013-01-23 13:29:00,
2013-01-23 08:35:00,13.1,1.8,30.32,NW,317,5.0,6.0,60,0.00,,,0.00,63.00,VWS V14.01,2013-01-23 13:35:00,
2013-01-23 08:40:00,13.3,1.7,30.32,NW,323,5.0,7.0,59,0.00,,,0.00,76.00,VWS V14.01,2013-01-23 13:40:00,
2013-01-23 08:45:00,13.5,1.9,30.32,NW,317,3.0,8.0,59,0.00,,,0.00,93.00,VWS V14.01,2013-01-23 13:45:00,
2013-01-23 08:50:00,13.8,2.1,30.33,NW,312,3.0,7.0,59,0.00,,,0.00,104.00,VWS V14.01,2013-01-23 13:50:00,
2013-01-23 08:55:00,13.9,1.5,30.33,NW,313,6.0,8.0,57,0.00,,,0.00,109.00,VWS V14.01,2013-01-23 13:55:00,
2013-01-23 09:00:00,14.0,1.6,30.33,NW,309,6.0,8.0,57,0.00,,,0.00,35.00,VWS V14.01,2013-01-23 14:00:00,
2013-01-23 09:05:00,14.1,1.7,30.33,NW,313,3.0,8.0,57,0.00,,,0.00,65.00,VWS V14.01,2013-01-23 14:05:00,
2013-01-23 09:10:00,14.0,3.4,30.33,NW,304,0.0,9.0,62,0.00,,,0.00,40.00,VWS V14.01,2013-01-23 14:10:00,
2013-01-23 09:15:00,14.0,1.2,30.33,NNW,341,8.0,10.0,56,0.00,,,0.00,46.00,VWS V14.01,2013-01-23 14:15:00,
2013-01-23 09:20:00,13.9,1.1,30.33,NNW,329,3.0,8.0,56,0.00,,,0.00,160.00,VWS V14.01,2013-01-23 14:20:00,
2013-01-23 09:25:00,14.1,1.3,30.33,NW,315,3.0,4.0,56,0.00,,,0.00,141.00,VWS V14.01,2013-01-23 14:25:00,
2013-01-23 09:30:00,14.2,1.4,30.33,NW,326,1.0,2.0,56,0.00,,,0.00,125.00,VWS V14.01,2013-01-23 14:30:00,
2013-01-23 09:35:00,14.2,1.0,30.33,WNW,299,2.0,3.0,55,0.00,,,0.00,65.00,VWS V14.01,2013-01-23 14:35:00,
2013-01-23 09:41:00,14.3,1.1,30.34,NW,319,5.0,5.0,55,0.00,,,0.00,120.00,VWS V14.01,2013-01-23 14:41:00,
2013-01-23 09:46:00,14.3,1.5,30.34,NNW,328,4.0,7.0,56,0.00,,,0.00,148.00,VWS V14.01,2013-01-23 14:46:00,
2013-01-23 09:51:00,14.5,1.3,30.34,NW,325,7.0,9.0,55,0.00,,,0.00,111.00,VWS V14.01,2013-01-23 14:51:00,
2013-01-23 09:56:00,14.6,1.4,30.33,NNW,329,8.0,9.0,55,0.00,,,0.00,123.00,VWS V14.01,2013-01-23 14:56:00,
2013-01-23 10:01:00,15.1,2.2,30.33,WNW,294,1.0,5.0,56,0.00,,,0.00,230.00,VWS V14.01,2013-01-23 15:01:00,
2013-01-23 10:06:00,15.7,2.4,30.34,SSW,213,7.0,9.0,55,0.00,,,0.00,227.00,VWS V14.01,2013-01-23 15:06:00,
2013-01-23 10:11:00,16.2,2.9,30.33,WNW,298,3.0,4.0,55,0.00,,,0.00,232.00,VWS V14.01,2013-01-23 15:11:00,
2013-01-23 10:16:00,16.4,2.3,30.33,WNW,294,3.0,7.0,53,0.00,,,0.00,313.00,VWS V14.01,2013-01-23 15:16:00,
2013-01-23 10:21:00,16.8,3.0,30.33,West,262,2.0,7.0,54,0.00,,,0.00,295.00,VWS V14.01,2013-01-23 15:21:00,
2013-01-23 10:26:00,17.1,2.5,30.33,NW,324,3.0,12.0,52,0.00,,,0.00,318.00,VWS V14.01,2013-01-23 15:26:00,
2013-01-23 10:31:00,17.0,2.0,30.33,WSW,250,5.0,7.0,51,0.00,,,0.00,367.00,VWS V14.01,2013-01-23 15:31:00,
2013-01-23 10:37:00,17.5,3.3,30.33,NW,315,6.0,7.0,53,0.00,,,0.00,383.00,VWS V14.01,2013-01-23 15:37:00,
2013-01-23 10:42:00,17.8,3.2,30.33,WNW,289,5.0,10.0,52,0.00,,,0.00,383.00,VWS V14.01,2013-01-23 15:42:00,
2013-01-23 10:47:00,17.9,2.8,30.32,WNW,300,1.0,8.0,51,0.00,,,0.00,366.00,VWS V14.01,2013-01-23 15:47:00,
2013-01-23 10:52:00,18.0,2.5,30.32,NW,306,5.0,9.0,50,0.00,,,0.00,369.00,VWS V14.01,2013-01-23 15:52:00,
2013-01-23 10:57:00,17.7,2.7,30.32,North,355,4.0,7.0,51,0.00,,,0.00,70.00,VWS V14.01,2013-01-23 15:57:00,
2013-01-23 11:02:00,17.6,2.1,30.32,WSW,257,3.0,8.0,50,0.00,,,0.00,415.00,VWS V14.01,2013-01-23 16:02:00,
2013-01-23 11:07:00,18.1,2.6,30.31,NNW,330,5.0,13.0,50,0.00,,,0.00,388.00,VWS V14.01,2013-01-23 16:07:00,
2013-01-23 11:12:00,18.5,3.0,30.31,NNW,338,6.0,6.0,50,0.00,,,0.00,383.00,VWS V14.01,2013-01-23 16:12:00,
2013-01-23 11:17:00,18.9,3.8,30.30,NW,316,4.0,7.0,51,0.00,,,0.00,387.00,VWS V14.01,2013-01-23 16:17:00,
2013-01-23 11:22:00,18.9,2.5,30.30,NW,326,1.0,12.0,48,0.00,,,0.00,383.00,VWS V14.01,2013-01-23 16:22:00,
2013-01-23 11:27:00,18.9,2.5,30.30,NNW,328,8.0,16.0,48,0.00,,,0.00,367.00,VWS V14.01,2013-01-23 16:27:00,
2013-01-23 11:33:00,18.6,2.2,30.29,North,350,8.0,9.0,48,0.00,,,0.00,346.00,VWS V14.01,2013-01-23 16:33:00,
2013-01-23 11:38:00,18.5,1.6,30.29,NNW,339,9.0,16.0,47,0.00,,,0.00,359.00,VWS V14.01,2013-01-23 16:38:00,
2013-01-23 11:43:00,18.7,2.7,30.28,NW,304,2.0,10.0,49,0.00,,,0.00,345.00,VWS V14.01,2013-01-23 16:43:00,
2013-01-23 11:48:00,18.9,2.0,30.27,NNW,348,8.0,11.0,47,0.00,,,0.00,334.00,VWS V14.01,2013-01-23 16:48:00,
2013-01-23 11:53:00,19.0,2.6,30.27,NW,322,11.0,13.0,48,0.00,,,0.00,352.00,VWS V14.01,2013-01-23 16:53:00,
2013-01-23 11:58:00,19.0,2.1,30.27,North,355,8.0,14.0,47,0.00,,,0.00,381.00,VWS V14.01,2013-01-23 16:58:00,
2013-01-23 12:03:00,19.7,2.8,30.26,NW,304,3.0,4.0,47,0.00,,,0.00,387.00,VWS V14.01,2013-01-23 17:03:00,
2013-01-23 12:08:00,20.2,3.2,30.26,North,355,8.0,10.0,47,0.00,,,0.00,394.00,VWS V14.01,2013-01-23 17:08:00,
2013-01-23 12:13:00,20.6,3.1,30.26,NW,306,0.0,8.0,46,0.00,,,0.00,369.00,VWS V14.01,2013-01-23 17:13:00,
2013-01-23 12:18:00,20.9,2.9,30.25,NW,321,3.0,9.0,45,0.00,,,0.00,302.00,VWS V14.01,2013-01-23 17:18:00,
2013-01-23 12:24:00,20.9,3.4,30.25,North,350,5.0,6.0,46,0.00,,,0.00,271.00,VWS V14.01,2013-01-23 17:24:00,
2013-01-23 12:29:00,20.8,2.8,30.25,WNW,290,4.0,7.0,45,0.00,,,0.00,257.00,VWS V14.01,2013-01-23 17:29:00,
2013-01-23 12:34:00,20.5,2.1,30.25,NW,321,0.0,8.0,44,0.00,,,0.00,76.00,VWS V14.01,2013-01-23 17:34:00,
2013-01-23 12:39:00,20.2,2.3,30.25,NNW,345,3.0,5.0,45,0.00,,,0.00,401.00,VWS V14.01,2013-01-23 17:39:00,
2013-01-23 12:44:00,20.7,2.2,30.24,NW,321,5.0,9.0,44,0.00,,,0.00,468.00,VWS V14.01,2013-01-23 17:44:00,
2013-01-23 12:49:00,21.6,3.1,30.24,WNW,300,0.0,6.0,44,0.00,,,0.00,408.00,VWS V14.01,2013-01-23 17:49:00,
2013-01-23 12:54:00,21.8,2.8,30.24,NNW,330,8.0,12.0,43,0.00,,,0.00,281.00,VWS V14.01,2013-01-23 17:54:00,
2013-01-23 12:59:00,21.3,2.3,30.24,NW,315,10.0,11.0,43,0.00,,,0.00,246.00,VWS V14.01,2013-01-23 17:59:00,
2013-01-23 13:05:00,20.9,1.4,30.23,NW,325,4.0,12.0,42,0.00,,,0.00,197.00,VWS V14.01,2013-01-23 18:05:00,
2013-01-23 13:10:00,20.7,1.8,30.23,NW,306,3.0,8.0,43,0.00,,,0.00,218.00,VWS V14.01,2013-01-23 18:10:00,
2013-01-23 13:15:00,20.4,1.0,30.23,NW,306,6.0,12.0,42,0.00,,,0.00,236.00,VWS V14.01,2013-01-23 18:15:00,
2013-01-23 13:20:00,20.5,1.6,30.23,NNW,346,4.0,9.0,43,0.00,,,0.00,281.00,VWS V14.01,2013-01-23 18:20:00,
2013-01-23 13:25:00,20.9,1.9,30.22,WNW,302,2.0,10.0,43,0.00,,,0.00,260.00,VWS V14.01,2013-01-23 18:25:00,
2013-01-23 13:30:00,21.2,1.7,30.22,NW,317,0.0,7.0,42,0.00,,,0.00,271.00,VWS V14.01,2013-01-23 18:30:00,
2013-01-23 13:35:00,21.8,2.8,30.22,WNW,299,2.0,6.0,43,0.00,,,0.00,248.00,VWS V14.01,2013-01-23 18:35:00,
2013-01-23 13:40:00,22.0,1.9,30.22,NNW,340,1.0,10.0,41,0.00,,,0.00,257.00,VWS V14.01,2013-01-23 18:40:00,
2013-01-23 13:45:00,22.1,2.5,30.22,WNW,296,2.0,11.0,42,0.00,,,0.00,246.00,VWS V14.01,2013-01-23 18:45:00,
2013-01-23 13:50:00,22.4,2.3,30.22,SW,234,3.0,5.0,41,0.00,,,0.00,271.00,VWS V14.01,2013-01-23 18:50:00,
2013-01-23 13:55:00,22.6,2.5,30.22,SW,225,0.0,5.0,41,0.00,,,0.00,279.00,VWS V14.01,2013-01-23 18:55:00,
2013-01-23 14:00:00,22.8,2.1,30.21,NNW,330,4.0,13.0,40,0.00,,,0.00,325.00,VWS V14.01,2013-01-23 19:00:00,
2013-01-23 14:05:00,23.0,2.3,30.21,NW,309,0.0,10.0,40,0.00,,,0.00,294.00,VWS V14.01,2013-01-23 19:05:00,
2013-01-23 14:10:00,23.4,3.2,30.21,NW,315,9.0,9.0,41,0.00,,,0.00,294.00,VWS V14.01,2013-01-23 19:10:00,
2013-01-23 14:15:00,23.3,2.0,30.21,WNW,295,5.0,14.0,39,0.00,,,0.00,165.00,VWS V14.01,2013-01-23 19:15:00,
2013-01-23 14:20:00,22.7,2.0,30.21,WNW,290,4.0,14.0,40,0.00,,,0.00,237.00,VWS V14.01,2013-01-23 19:20:00,
2013-01-23 14:25:00,22.8,2.6,30.21,WSW,241,0.0,6.0,41,0.00,,,0.00,374.00,VWS V14.01,2013-01-23 19:25:00,
2013-01-23 14:30:00,23.1,2.4,30.21,NW,314,2.0,11.0,40,0.00,,,0.00,438.00,VWS V14.01,2013-01-23 19:30:00,
2013-01-23 14:35:00,23.5,2.7,30.20,WSW,244,2.0,11.0,40,0.00,,,0.00,415.00,VWS V14.01,2013-01-23 19:35:00,
2013-01-23 14:40:00,24.2,3.9,30.20,NW,322,1.0,5.0,41,0.00,,,0.00,492.00,VWS V14.01,2013-01-23 19:40:00,
2013-01-23 14:45:00,24.7,3.3,30.20,WSW,250,3.0,7.0,39,0.00,,,0.00,383.00,VWS V14.01,2013-01-23 19:45:00,
2013-01-23 14:50:00,24.9,3.5,30.20,NW,321,0.0,7.0,39,0.00,,,0.00,388.00,VWS V14.01,2013-01-23 19:50:00,
2013-01-23 14:55:00,24.9,2.9,30.20,NW,322,10.0,10.0,38,0.00,,,0.00,352.00,VWS V14.01,2013-01-23 19:55:00,
2013-01-23 15:00:00,24.4,2.5,30.19,West,268,9.0,11.0,38,0.00,,,0.00,244.00,VWS V14.01,2013-01-23 20:00:00,
2013-01-23 15:05:00,24.2,2.8,30.19,North,5,5.0,10.0,39,0.00,,,0.00,213.00,VWS V14.01,2013-01-23 20:05:00,
2013-01-23 15:10:00,23.8,2.5,30.20,SW,234,5.0,11.0,39,0.00,,,0.00,190.00,VWS V14.01,2013-01-23 20:10:00,
2013-01-23 15:15:00,23.6,2.8,30.19,North,349,6.0,8.0,40,0.00,,,0.00,165.00,VWS V14.01,2013-01-23 20:15:00,
2013-01-23 15:20:00,23.3,2.6,30.19,West,261,3.0,10.0,40,0.00,,,0.00,146.00,VWS V14.01,2013-01-23 20:20:00,
2013-01-23 15:25:00,23.3,3.1,30.19,NW,324,4.0,7.0,41,0.00,,,0.00,142.00,VWS V14.01,2013-01-23 20:25:00,
2013-01-23 15:30:00,23.2,2.5,30.19,NW,313,5.0,12.0,40,0.00,,,0.00,178.00,VWS V14.01,2013-01-23 20:30:00,
2013-01-23 15:35:00,23.2,3.0,30.19,NNW,329,7.0,10.0,41,0.00,,,0.00,95.00,VWS V14.01,2013-01-23 20:35:00,
2013-01-23 15:40:00,23.1,2.9,30.20,North,5,1.0,8.0,41,0.00,,,0.00,134.00,VWS V14.01,2013-01-23 20:40:00,
2013-01-23 15:45:00,23.0,2.8,30.20,NW,314,2.0,4.0,41,0.00,,,0.00,135.00,VWS V14.01,2013-01-23 20:45:00,
2013-01-23 15:50:00,23.0,2.8,30.20,NW,317,4.0,4.0,41,0.00,,,0.00,116.00,VWS V14.01,2013-01-23 20:50:00,
2013-01-23 15:56:00,22.9,3.2,30.20,NW,320,0.0,1.0,42,0.00,,,0.00,104.00,VWS V14.01,2013-01-23 20:56:00,
2013-01-23 16:01:00,22.9,3.2,30.20,WSW,239,3.0,7.0,42,0.00,,,0.00,93.00,VWS V14.01,2013-01-23 21:01:00,
2013-01-23 16:06:00,22.8,3.7,30.20,West,269,2.0,5.0,43,0.00,,,0.00,79.00,VWS V14.01,2013-01-23 21:06:00,
2013-01-23 16:11:00,22.8,3.7,30.19,WNW,289,0.0,4.0,43,0.00,,,0.00,69.00,VWS V14.01,2013-01-23 21:11:00,
2013-01-23 16:16:00,22.7,3.1,30.20,West,268,1.0,8.0,42,0.00,,,0.00,60.00,VWS V14.01,2013-01-23 21:16:00,
2013-01-23 16:21:00,22.6,3.0,30.19,NW,321,4.0,6.0,42,0.00,,,0.00,53.00,VWS V14.01,2013-01-23 21:21:00,
2013-01-23 16:26:00,22.6,3.5,30.19,West,261,4.0,6.0,43,0.00,,,0.00,46.00,VWS V14.01,2013-01-23 21:26:00,
2013-01-23 16:32:00,22.5,3.4,30.19,NW,321,1.0,8.0,43,0.00,,,0.00,42.00,VWS V14.01,2013-01-23 21:32:00,
2013-01-23 16:37:00,22.5,2.9,30.19,WNW,302,2.0,4.0,42,0.00,,,0.00,37.00,VWS V14.01,2013-01-23 21:37:00,
2013-01-23 16:42:00,22.5,3.4,30.19,WNW,296,0.0,1.0,43,0.00,,,0.00,28.00,VWS V14.01,2013-01-23 21:42:00,
2013-01-23 16:47:00,22.5,3.4,30.19,NW,305,0.0,5.0,43,0.00,,,0.00,21.00,VWS V14.01,2013-01-23 21:47:00,
2013-01-23 16:52:00,22.5,3.4,30.18,NW,307,3.0,4.0,43,0.00,,,0.00,16.00,VWS V14.01,2013-01-23 21:52:00,
2013-01-23 16:57:00,22.4,3.3,30.18,West,270,4.0,4.0,43,0.00,,,0.00,11.00,VWS V14.01,2013-01-23 21:57:00,
2013-01-23 17:02:00,22.3,2.7,30.18,NW,322,6.0,8.0,42,0.00,,,0.00,7.00,VWS V14.01,2013-01-23 22:02:00,
2013-01-23 17:07:00,22.2,2.6,30.19,NW,309,2.0,3.0,42,0.00,,,0.00,5.00,VWS V14.01,2013-01-23 22:07:00,
2013-01-23 17:12:00,22.1,3.0,30.19,NW,323,2.0,4.0,43,0.00,,,0.00,0.00,VWS V14.01,2013-01-23 22:12:00,
2013-01-23 17:18:00,22.0,2.4,30.19,NW,324,1.0,5.0,42,0.00,,,0.00,0.00,VWS V14.01,2013-01-23 22:18:00,
2013-01-23 17:23:00,22.0,2.9,30.19,NW,326,0.0,3.0,43,0.00,,,0.00,0.00,VWS V14.01,2013-01-23 22:23:00,
2013-01-23 17:28:00,21.9,2.8,30.19,NW,318,4.0,4.0,43,0.00,,,0.00,0.00,VWS V14.01,2013-01-23 22:28:00,
2013-01-23 17:33:00,21.9,2.8,30.19,NW,322,1.0,4.0,43,0.00,,,0.00,0.00,VWS V14.01,2013-01-23 22:33:00,
2013-01-23 17:38:00,21.8,2.8,30.19,NW,325,0.0,5.0,43,0.00,,,0.00,0.00,VWS V14.01,2013-01-23 22:38:00,
2013-01-23 17:43:00,21.8,2.8,30.19,NW,307,0.0,8.0,43,0.00,,,0.00,0.00,VWS V14.01,2013-01-23 22:43:00,
2013-01-23 17:48:00,21.8,3.2,30.18,NW,307,0.0,1.0,44,0.00,,,0.00,0.00,VWS V14.01,2013-01-23 22:48:00,
2013-01-23 17:53:00,21.8,2.8,30.18,NNW,327,3.0,5.0,43,0.00,,,0.00,0.00,VWS V14.01,2013-01-23 22:53:00,
2013-01-23 17:58:00,21.8,2.8,30.18,NW,309,3.0,6.0,43,0.00,,,0.00,0.00,VWS V14.01,2013-01-23 22:58:00,
2013-01-23 18:04:00,21.8,3.2,30.18,NW,318,0.0,3.0,44,0.00,,,0.00,0.00,VWS V14.01,2013-01-23 23:04:00,
2013-01-23 18:09:00,21.8,3.2,30.19,NW,314,0.0,5.0,44,0.00,,,0.00,0.00,VWS V14.01,2013-01-23 23:09:00,
2013-01-23 18:14:00,21.7,3.2,30.18,NW,317,0.0,2.0,44,0.00,,,0.00,0.00,VWS V14.01,2013-01-23 23:14:00,
2013-01-23 18:19:00,21.7,3.2,30.18,NW,317,0.0,3.0,44,0.00,,,0.00,0.00,VWS V14.01,2013-01-23 23:19:00,
2013-01-23 18:24:00,21.7,3.2,30.18,NW,317,3.0,5.0,44,0.00,,,0.00,0.00,VWS V14.01,2013-01-23 23:24:00,
2013-01-23 18:29:00,21.7,3.2,30.18,NW,318,2.0,4.0,44,0.00,,,0.00,0.00,VWS V14.01,2013-01-23 23:29:00,
2013-01-23 18:34:00,21.7,3.2,30.18,NNW,330,1.0,4.0,44,0.00,,,0.00,0.00,VWS V14.01,2013-01-23 23:34:00,
2013-01-23 18:39:00,21.6,3.5,30.18,North,355,4.0,5.0,45,0.00,,,0.00,0.00,VWS V14.01,2013-01-23 23:39:00,
2013-01-23 18:44:00,21.6,3.5,30.18,North,355,0.0,3.0,45,0.00,,,0.00,0.00,VWS V14.01,2013-01-23 23:44:00,
2013-01-23 18:49:00,21.6,3.5,30.18,NW,315,0.0,4.0,45,0.00,,,0.00,0.00,VWS V14.01,2013-01-23 23:49:00,
2013-01-23 18:55:00,21.6,3.5,30.18,NW,319,2.0,4.0,45,0.00,,,0.00,0.00,VWS V14.01,2013-01-23 23:55:00,
2013-01-23 19:00:00,21.6,3.5,30.18,NW,318,0.0,3.0,45,0.00,,,0.00,0.00,VWS V14.01,2013-01-24 00:00:00,
2013-01-23 19:05:00,21.6,3.5,30.17,NW,318,0.0,2.0,45,0.00,,,0.00,0.00,VWS V14.01,2013-01-24 00:05:00,
2013-01-23 19:10:00,21.6,4.0,30.17,NW,319,0.0,1.0,46,0.00,,,0.00,0.00,VWS V14.01,2013-01-24 00:10:00,
2013-01-23 19:15:00,21.6,4.0,30.17,NW,319,0.0,0.0,46,0.00,,,0.00,0.00,VWS V14.01,2013-01-24 00:15:00,
2013-01-23 19:20:00,21.5,3.5,30.17,NW,318,0.0,0.0,45,0.00,,,0.00,0.00,VWS V14.01,2013-01-24 00:20:00,
2013-01-23 19:25:00,21.5,3.9,30.17,NW,319,0.0,0.0,46,0.00,,,0.00,0.00,VWS V14.01,2013-01-24 00:25:00,
2013-01-23 19:30:00,21.5,3.9,30.17,NW,319,0.0,0.0,46,0.00,,,0.00,0.00,VWS V14.01,2013-01-24 00:30:00,
2013-01-23 19:35:00,21.4,3.8,30.17,NW,318,0.0,1.0,46,0.00,,,0.00,0.00,VWS V14.01,2013-01-24 00:35:00,
2013-01-23 19:40:00,21.4,3.8,30.17,NW,318,0.0,3.0,46,0.00,,,0.00,0.00,VWS V14.01,2013-01-24 00:40:00,
2013-01-23 19:45:00,21.4,4.3,30.17,NW,319,1.0,1.0,47,0.00,,,0.00,0.00,VWS V14.01,2013-01-24 00:45:00,
2013-01-23 19:50:00,21.3,3.8,30.17,NW,318,0.0,0.0,46,0.00,,,0.00,0.00,VWS V14.01,2013-01-24 00:50:00,
2013-01-23 19:55:00,21.3,3.8,30.16,NNW,327,0.0,2.0,46,0.00,,,0.00,0.00,VWS V14.01,2013-01-24 00:55:00,
2013-01-23 20:00:00,21.3,4.2,30.17,NNW,327,0.0,0.0,47,0.00,,,0.00,0.00,VWS V14.01,2013-01-24 01:00:00,
2013-01-23 20:05:00,21.3,4.2,30.16,NNW,327,0.0,0.0,47,0.00,,,0.00,0.00,VWS V14.01,2013-01-24 01:05:00,
2013-01-23 20:11:00,21.3,4.2,30.16,NW,326,0.0,0.0,47,0.00,,,0.00,0.00,VWS V14.01,2013-01-24 01:11:00,
2013-01-23 20:16:00,21.3,4.7,30.16,NNW,327,0.0,0.0,48,0.00,,,0.00,0.00,VWS V14.01,2013-01-24 01:16:00,
2013-01-23 20:21:00,21.2,4.6,30.16,NNW,327,0.0,0.0,48,0.00,,,0.00,0.00,VWS V14.01,2013-01-24 01:21:00,
2013-01-23 20:26:00,21.2,5.0,30.15,NNW,327,0.0,2.0,49,0.00,,,0.00,0.00,VWS V14.01,2013-01-24 01:26:00,
2013-01-23 20:31:00,21.2,5.0,30.16,NW,326,0.0,0.0,49,0.00,,,0.00,0.00,VWS V14.01,2013-01-24 01:31:00,
2013-01-23 20:36:00,21.1,4.9,30.15,NNW,327,0.0,1.0,49,0.00,,,0.00,0.00,VWS V14.01,2013-01-24 01:36:00,
2013-01-23 20:41:00,21.1,4.9,30.15,NE,56,3.0,3.0,49,0.00,,,0.00,0.00,VWS V14.01,2013-01-24 01:41:00,
2013-01-23 20:46:00,21.0,4.8,30.15,NE,56,0.0,1.0,49,0.00,,,0.00,0.00,VWS V14.01,2013-01-24 01:46:00,
2013-01-23 20:51:00,21.0,4.8,30.15,NE,56,0.0,0.0,49,0.00,,,0.00,0.00,VWS V14.01,2013-01-24 01:51:00,
2013-01-23 20:57:00,20.9,4.8,30.15,NE,56,0.0,0.0,49,0.00,,,0.00,0.00,VWS V14.01,2013-01-24 01:57:00,
2013-01-23 21:02:00,20.9,4.8,30.16,NE,56,0.0,0.0,49,0.00,,,0.00,0.00,VWS V14.01,2013-01-24 02:02:00,
2013-01-23 21:07:00,20.9,5.2,30.16,NE,56,0.0,0.0,50,0.00,,,0.00,0.00,VWS V14.01,2013-01-24 02:07:00,
2013-01-23 21:12:00,20.9,5.2,30.16,South,169,2.0,2.0,50,0.00,,,0.00,0.00,VWS V14.01,2013-01-24 02:12:00,
2013-01-23 21:17:00,20.8,5.1,30.16,South,177,0.0,0.0,50,0.00,,,0.00,0.00,VWS V14.01,2013-01-24 02:17:00,
2013-01-23 21:22:00,20.8,5.1,30.16,South,177,0.0,0.0,50,0.00,,,0.00,0.00,VWS V14.01,2013-01-24 02:22:00,
2013-01-23 21:27:00,20.8,5.1,30.16,South,177,0.0,0.0,50,0.00,,,0.00,0.00,VWS V14.01,2013-01-24 02:27:00,
2013-01-23 21:32:00,20.8,5.1,30.16,South,176,0.0,0.0,50,0.00,,,0.00,0.00,VWS V14.01,2013-01-24 02:32:00,
2013-01-23 21:37:00,20.7,5.0,30.16,South,176,0.0,0.0,50,0.00,,,0.00,0.00,VWS V14.01,2013-01-24 02:37:00,
2013-01-23 21:42:00,20.7,5.0,30.16,South,177,0.0,0.0,50,0.00,,,0.00,0.00,VWS V14.01,2013-01-24 02:42:00,
2013-01-23 21:48:00,20.7,5.0,30.16,South,176,0.0,0.0,50,0.00,,,0.00,0.00,VWS V14.01,2013-01-24 02:48:00,
2013-01-23 21:53:00,20.7,5.0,30.16,South,177,0.0,0.0,50,0.00,,,0.00,0.00,VWS V14.01,2013-01-24 02:53:00,
2013-01-23 21:58:00,20.7,5.0,30.16,South,175,0.0,0.0,50,0.00,,,0.00,0.00,VWS V14.01,2013-01-24 02:58:00,
2013-01-23 22:03:00,20.7,5.4,30.16,South,175,0.0,0.0,51,0.00,,,0.00,0.00,VWS V14.01,2013-01-24 03:03:00,
2013-01-23 22:08:00,20.7,5.4,30.16,South,175,0.0,0.0,51,0.00,,,0.00,0.00,VWS V14.01,2013-01-24 03:08:00,
2013-01-23 22:13:00,20.7,5.4,30.16,South,175,0.0,0.0,51,0.00,,,0.00,0.00,VWS V14.01,2013-01-24 03:13:00,
2013-01-23 22:18:00,20.7,5.0,30.16,South,174,0.0,0.0,50,0.00,,,0.00,0.00,VWS V14.01,2013-01-24 03:18:00,
2013-01-23 22:23:00,20.7,5.0,30.16,South,173,0.0,2.0,50,0.00,,,0.00,0.00,VWS V14.01,2013-01-24 03:23:00,
2013-01-23 22:28:00,20.7,5.4,30.16,South,173,0.0,0.0,51,0.00,,,0.00,0.00,VWS V14.01,2013-01-24 03:28:00,
2013-01-23 22:34:00,20.6,5.8,30.16,ESE,106,0.0,0.0,52,0.00,,,0.00,0.00,VWS V14.01,2013-01-24 03:34:00,
2013-01-23 22:39:00,20.6,7.0,30.16,North,9,0.0,4.0,55,0.00,,,0.00,0.00,VWS V14.01,2013-01-24 03:39:00,
2013-01-23 22:44:00,20.4,7.6,30.15,East,88,1.0,2.0,57,0.00,,,0.00,0.00,VWS V14.01,2013-01-24 03:44:00,
2013-01-23 22:49:00,20.4,8.0,30.15,ENE,66,0.0,0.0,58,0.00,,,0.00,0.00,VWS V14.01,2013-01-24 03:49:00,
2013-01-23 22:54:00,20.3,8.3,30.15,ENE,66,0.0,1.0,59,0.00,,,0.00,0.00,VWS V14.01,2013-01-24 03:54:00,
2013-01-23 22:59:00,20.1,8.8,30.15,ENE,67,0.0,1.0,61,0.00,,,0.00,0.00,VWS V14.01,2013-01-24 03:59:00,
2013-01-23 23:04:00,20.0,9.1,30.14,ENE,67,0.0,0.0,62,0.00,,,0.00,0.00,VWS V14.01,2013-01-24 04:04:00,
2013-01-23 23:09:00,20.0,9.1,30.14,ENE,67,0.0,0.0,62,0.00,,,0.00,0.00,VWS V14.01,2013-01-24 04:09:00,
2013-01-23 23:15:00,19.9,9.4,30.14,SE,129,0.0,2.0,63,0.00,,,0.00,0.00,VWS V14.01,2013-01-24 04:15:00,
2013-01-23 23:20:00,19.8,9.6,30.14,SE,129,0.0,0.0,64,0.00,,,0.00,0.00,VWS V14.01,2013-01-24 04:20:00,
2013-01-23 23:25:00,19.7,9.9,30.13,SE,126,0.0,1.0,65,0.00,,,0.00,0.00,VWS V14.01,2013-01-24 04:25:00,
2013-01-23 23:30:00,19.7,9.9,30.13,SE,127,0.0,0.0,65,0.00,,,0.00,0.00,VWS V14.01,2013-01-24 04:30:00,
2013-01-23 23:35:00,19.7,10.2,30.13,SE,128,0.0,2.0,66,0.00,,,0.00,0.00,VWS V14.01,2013-01-24 04:35:00,
2013-01-23 23:40:00,19.5,10.3,30.13,SE,137,0.0,1.0,67,0.00,,,0.00,0.00,VWS V14.01,2013-01-24 04:40:00,
2013-01-23 23:45:00,19.4,10.6,30.13,SE,138,0.0,0.0,68,0.00,,,0.00,0.00,VWS V14.01,2013-01-24 04:45:00,
2013-01-23 23:50:00,19.3,10.8,30.13,SE,138,0.0,0.0,69,0.00,,,0.00,0.00,VWS V14.01,2013-01-24 04:50:00,
2013-01-23 23:55:00,19.3,11.1,30.12,SE,138,0.0,0.0,70,0.00,,,0.00,0.00,VWS V14.01,2013-01-24 04:55:00,